Location: Grange Rosano
(44.4500°N, 6.9667°E)
Time: 21:21:44
(UTC+00:00)

Meteor 1-28 Rocket - Pass Details

Date: 26 May 2022
Orbit: 499 x 518 km, 97.4° (Epoch: 01 July)

Event Time Altitude Azimuth Distance (km) Brightness Sun altitude
Exits shadow 02:04:41 26° 186° (S) 1,035 4.2 -15.4°
Maximum altitude 02:06:37 61° 259° (W) 584 3.2 -15.2°
Drops below altitude 10° 02:10:19 10° 341° (NNW) 1,737 6.3 -14.8°
Sets 02:12:26 0° 345° (NNW) 2,624 7.3 -14.6°
